Weather History for Midland Airpark, TX

Change the Weather History Date:

Wednesday, September 5, 2012

  Actual Average (KMAF) Record (KMAF)
Temperature  
Mean Temperature 90 °F 78 °F  
Max Temperature 102 °F 90 °F 104 °F (1948)
Min Temperature 78 °F 65 °F 53 °F (1988)
Degree Days  
Heating Degree Days 0 0  
Month to date heating degree days 0  
Since 1 July heating degree days 0  
Cooling Degree Days 25 13  
Month to date cooling degree days 67  
Year to date cooling degree days 1951  
Growing Degree Days 40 (Base 50)    
Moisture  
Dew Point 56 °F    
Average Humidity 32    
Maximum Humidity 45    
Minimum Humidity 19    
Precipitation  
Precipitation 0.00 in 0.07 in 3.60 in (1944)
Month to date precipitation 0.33  
Year to date precipitation 10.05  
Sea Level Pressure  
Sea Level Pressure 29.93 in    
Wind  
Wind Speed 10 mph (SSE)    
Max Wind Speed 14 mph    
Max Gust Speed 21 mph    
Visibility 10 miles    
Events      
T = Trace of Precipitation, MM = Missing Value Source: NWS Daily Summary

Daily Weather History Graph

Daily Weather History Graph

Search for Another Location

Airport:

Trip Planner

Search our weather history database for the weather conditions in past years. The results will help you decide how hot, cold, wet, or windy it might be!

Date:

Astronomy

Sep. 05, 2012 Rise Set
Actual Time 7:26 AM CDT 8:06 PM CDT
Civil Twilight 7:01 AM CDT 8:31 PM CDT
Nautical Twilight 6:32 AM CDT 9:00 PM CDT
Astronomical Twilight 6:02 AM CDT 9:30 PM CDT
Moon 11:00 PM CDT (9/5) 12:10 PM CDT (9/5)
Length of Visible Light 13h 29m
Length of Day
12h 40m
Waning Gibbous, 76% of the Moon is Illuminated
Sep 5
Waning Gibbous
Sep 8
Last Quarter
Sep 15
New
Sep 22
First Quarter
Sep 29
Full

Hourly Weather History & Observations

Time (CDT) Temp. Heat Index Dew Point Humidity Pressure Visibility Wind Dir Wind Speed Gust Speed Precip Events Conditions
12:15 AM 88.5 °F 87.3 °F 57.4 °F 35% 29.94 in 10.0 mi South 11.5 mph - N/A   Clear
12:35 AM 88.2 °F 87.3 °F 58.5 °F 37% 29.94 in 10.0 mi South 11.5 mph - N/A   Clear
12:55 AM 88.0 °F 87.1 °F 59.0 °F 37% 29.94 in 10.0 mi South 13.8 mph - N/A   Clear
1:15 AM 87.8 °F 87.1 °F 59.2 °F 38% 29.94 in 10.0 mi South 10.4 mph - N/A   Clear
1:35 AM 87.4 °F 86.9 °F 59.4 °F 39% 29.95 in 10.0 mi South 11.5 mph - N/A   Clear
1:55 AM 86.7 °F 86.3 °F 59.5 °F 40% 29.95 in 10.0 mi South 11.5 mph - N/A   Clear
2:15 AM 86.2 °F 85.9 °F 59.9 °F 41% 29.95 in 10.0 mi South 10.4 mph - N/A   Clear
2:35 AM 85.8 °F 85.4 °F 59.9 °F 41% 29.95 in 10.0 mi South 9.2 mph - N/A   Clear
2:55 AM 85.3 °F 85.0 °F 59.9 °F 42% 29.95 in 10.0 mi South 9.2 mph - N/A   Clear
3:15 AM 84.9 °F 84.8 °F 59.9 °F 43% 29.94 in 10.0 mi South 9.2 mph - N/A   Clear
3:35 AM 84.4 °F 84.2 °F 59.5 °F 43% 29.94 in 10.0 mi South 9.2 mph - N/A   Clear
3:55 AM 83.8 °F 83.6 °F 59.4 °F 43% 29.94 in 10.0 mi South 8.1 mph - N/A   Clear
4:15 AM 83.5 °F 83.2 °F 58.8 °F 43% 29.93 in 10.0 mi South 8.1 mph - N/A   Clear
4:35 AM 83.1 °F 82.9 °F 58.6 °F 43% 29.94 in 10.0 mi South 6.9 mph - N/A   Clear
4:55 AM 82.4 °F 82.3 °F 58.3 °F 44% 29.94 in 10.0 mi SSE 6.9 mph - N/A   Clear
5:15 AM 81.7 °F 81.6 °F 58.1 °F 44% 29.94 in 10.0 mi SSE 5.8 mph - N/A   Clear
5:35 AM 81.1 °F 81.3 °F 58.1 °F 45% 29.94 in 10.0 mi South 6.9 mph - N/A   Clear
5:55 AM 80.8 °F 81.0 °F 57.4 °F 45% 29.93 in 10.0 mi South 5.8 mph - N/A   Clear
6:15 AM 80.8 °F 80.8 °F 56.7 °F 43% 29.93 in 10.0 mi SSE 6.9 mph - N/A   Clear
6:35 AM 79.9 °F - 56.8 °F 45% 29.94 in 10.0 mi SSE 6.9 mph - N/A   Clear
6:55 AM 79.3 °F - 56.1 °F 45% 29.94 in 10.0 mi SSE 6.9 mph - N/A   Clear
7:15 AM 79.2 °F - 55.4 °F 44% 29.94 in 10.0 mi SSE 8.1 mph - N/A   Clear
7:35 AM 79.0 °F - 54.9 °F 43% 29.94 in 10.0 mi South 9.2 mph - N/A   Clear
7:55 AM 78.8 °F - 54.0 °F 42% 29.95 in 10.0 mi SSE 9.2 mph - N/A   Clear
8:15 AM 79.2 °F - 53.4 °F 41% 29.95 in 10.0 mi SSE 9.2 mph - N/A   Clear
8:35 AM 79.7 °F - 53.1 °F 40% 29.95 in 10.0 mi SSE 11.5 mph - N/A   Clear
8:55 AM 80.6 °F - 52.9 °F 38% 29.96 in 10.0 mi South 10.4 mph - N/A   Clear
9:15 AM 81.9 °F 81.0 °F 53.1 °F 37% 29.96 in 10.0 mi South 10.4 mph - N/A   Clear
9:35 AM 83.7 °F 82.3 °F 53.2 °F 35% 29.96 in 10.0 mi South 13.8 mph - N/A   Clear
9:55 AM 85.5 °F 83.7 °F 53.6 °F 33% 29.96 in 10.0 mi South 12.7 mph - N/A   Clear
10:15 AM 86.7 °F 84.9 °F 54.1 °F 33% 29.96 in 10.0 mi South 12.7 mph - N/A   Clear
10:35 AM 88.5 °F 86.7 °F 55.0 °F 32% 29.96 in 10.0 mi SSE 10.4 mph 16.1 mph N/A   Clear
10:55 AM 90.1 °F 88.3 °F 55.8 °F 31% 29.96 in 10.0 mi South 11.5 mph - N/A   Clear
11:15 AM 91.6 °F 89.8 °F 56.3 °F 30% 29.96 in 10.0 mi South 11.5 mph - N/A   Clear
11:35 AM 92.8 °F 91.1 °F 56.7 °F 29% 29.97 in 10.0 mi South 8.1 mph - N/A   Clear
11:55 AM 93.4 °F 91.8 °F 56.5 °F 29% 29.96 in 10.0 mi South 3.5 mph 16.1 mph N/A   Clear
12:15 PM 94.3 °F 92.7 °F 56.3 °F 28% 29.96 in 10.0 mi SSW 9.2 mph - N/A   Clear
12:35 PM 95.0 °F 93.4 °F 56.1 °F 27% 29.96 in 10.0 mi SSW 6.9 mph - N/A   Clear
12:55 PM 96.4 °F 95.0 °F 56.3 °F 26% 29.95 in 10.0 mi SSW 6.9 mph - N/A   Clear
1:15 PM 97.3 °F 95.8 °F 56.3 °F 25% 29.95 in 10.0 mi South 8.1 mph - N/A   Clear
1:35 PM 98.1 °F 96.8 °F 56.3 °F 25% 29.94 in 10.0 mi SE 9.2 mph - N/A   Clear
1:55 PM 99.3 °F 98.2 °F 56.3 °F 24% 29.93 in 10.0 mi SSE 9.2 mph - N/A   Clear
2:15 PM 99.7 °F 98.7 °F 56.5 °F 24% 29.93 in 10.0 mi East 6.9 mph - N/A   Clear
2:35 PM 99.9 °F 99.0 °F 56.5 °F 24% 29.91 in 10.0 mi ESE 8.1 mph - N/A   Clear
2:55 PM 100.4 °F 99.3 °F 56.1 °F 23% 29.91 in 7.0 mi SE 9.2 mph 18.4 mph N/A   Scattered Clouds
3:15 PM 101.1 °F 99.8 °F 55.9 °F 22% 29.90 in 10.0 mi SE 12.7 mph - N/A   Scattered Clouds
3:35 PM 101.3 °F 99.6 °F 55.0 °F 21% 29.89 in 10.0 mi ENE 6.9 mph - N/A   Clear
3:55 PM 101.3 °F 100.1 °F 55.2 °F 22% 29.89 in 10.0 mi SSE 5.8 mph - N/A   Clear
4:15 PM 101.7 °F 99.7 °F 54.1 °F 20% 29.88 in 10.0 mi East 6.9 mph - N/A   Clear
4:35 PM 101.3 °F 99.2 °F 53.8 °F 20% 29.87 in 10.0 mi ESE 4.6 mph - N/A   Clear
4:55 PM 101.5 °F 99.4 °F 53.6 °F 20% 29.86 in 10.0 mi ESE 13.8 mph 17.3 mph N/A   Clear
5:15 PM 102.2 °F 99.9 °F 53.2 °F 19% 29.85 in 10.0 mi SSE 6.9 mph 16.1 mph N/A   Clear
5:35 PM 101.5 °F 99.4 °F 53.2 °F 20% 29.85 in 10.0 mi SE 10.4 mph - N/A   Clear
5:55 PM 101.5 °F - 52.7 °F 20% 29.85 in 10.0 mi SE 11.5 mph 17.3 mph N/A   Clear
6:15 PM 101.1 °F - 52.0 °F 19% 29.85 in 10.0 mi SE 8.1 mph 18.4 mph N/A   Clear
6:35 PM 100.8 °F - 52.0 °F 19% 29.84 in 10.0 mi ESE 10.4 mph - N/A   Clear
6:55 PM 100.4 °F - 51.4 °F 19% 29.84 in 10.0 mi ESE 11.5 mph - N/A   Clear
7:15 PM 99.7 °F - 51.1 °F 19% 29.84 in 10.0 mi ESE 10.4 mph - N/A   Clear
7:35 PM 99.1 °F - 50.9 °F 20% 29.85 in 10.0 mi SE 11.5 mph - N/A   Clear
7:55 PM 97.9 °F - 51.1 °F 21% 29.85 in 10.0 mi SE 11.5 mph - N/A   Clear
8:15 PM 97.0 °F - 51.6 °F 22% 29.86 in 10.0 mi SE 9.2 mph - N/A   Clear
8:35 PM 96.3 °F - 51.8 °F 22% 29.88 in 10.0 mi SE 9.2 mph - N/A   Clear
8:55 PM 95.4 °F - 51.8 °F 23% 29.90 in 10.0 mi SE 8.1 mph - N/A   Clear
9:15 PM 94.6 °F - 52.0 °F 23% 29.91 in 10.0 mi ESE 8.1 mph - N/A   Clear
9:35 PM 93.4 °F - 52.3 °F 25% 29.93 in 10.0 mi ESE 3.5 mph - N/A   Mostly Cloudy
9:55 PM 90.9 °F 88.9 °F 55.0 °F 30% 29.94 in 7.0 mi NNW 13.8 mph 20.7 mph N/A   Overcast
10:15 PM 88.9 °F 87.3 °F 56.3 °F 33% 29.95 in 10.0 mi NNW 11.5 mph 17.3 mph N/A   Mostly Cloudy
10:35 PM 86.7 °F 85.6 °F 57.6 °F 37% 29.96 in 10.0 mi NNE 10.4 mph - N/A   Scattered Clouds
11:15 PM 84.9 °F 85.0 °F 60.8 °F 44% 29.97 in 10.0 mi NNE 10.4 mph 18.4 mph N/A   Mostly Cloudy
11:35 PM 84.2 °F 84.4 °F 61.0 °F 45% 29.99 in 10.0 mi NNE 9.2 mph - N/A   Mostly Cloudy
11:55 PM 84.6 °F 84.2 °F 59.4 °F 42% 30.00 in 10.0 mi NE 9.2 mph - N/A   Scattered Clouds